• In Netherlands
  • List of Countries
  • For 7 days
  • Water Temperature
  • Satellite Maps
  • Weather Map
  • Weather Widgets
  • user-avatar
    Login

    Hourly Weather Buenos Aires

    Today, 29 July, Saturday

    Time Temperature Precipitation Wind Pressure Humidity
    00:00 +21°C° 0 mm 4 mps 760 mmHg 68%
    01:00 +21°C° 0 mm 4 mps 760 mmHg 69%
    02:00 +20°C° 0 mm 4 mps 760 mmHg 68%
    03:00 +20°C° 0 mm 4 mps 760 mmHg 69%
    04:00 +19°C° 0 mm 4 mps 760 mmHg 70%
    05:00 +19°C° 0 mm 4 mps 760 mmHg 71%
    06:00 +19°C° 0 mm 3 mps 761 mmHg 72%
    07:00 +19°C° 0 mm 3 mps 761 mmHg 73%
    08:00 +19°C° 0 mm 3 mps 761 mmHg 73%
    09:00 +20°C° 0 mm 3 mps 761 mmHg 69%
    10:00 +21°C° 0 mm 3 mps 761 mmHg 64%
    11:00 +24°C° 0 mm 3 mps 762 mmHg 60%
    12:00 +24°C° 0 mm 3 mps 761 mmHg 58%
    13:00 +25°C° 0 mm 2 mps 761 mmHg 55%
    14:00 +26°C° 0 mm 2 mps 761 mmHg 53%
    15:00 +25°C° 0 mm 2 mps 761 mmHg 58%
    16:00 +24°C° 0 mm 2 mps 761 mmHg 62%
    17:00 +23°C° 0 mm 2 mps 761 mmHg 67%
    18:00 +21°C° 0 mm 2 mps 762 mmHg 71%
    19:00 +20°C° 0 mm 3 mps 762 mmHg 76%
    20:00 +19°C° 0 mm 4 mps 763 mmHg 80%
    21:00 +18°C° 0 mm 4 mps 763 mmHg 81%
    22:00 +16°C° 0 mm 5 mps 763 mmHg 83%
    23:00 +15°C° 0 mm 6 mps 764 mmHg 84%

    Tomorrow, 30 July, Sunday

    Time Temperature Precipitation Wind Pressure Humidity
    00:00 +15°C° 0 mm 5 mps 764 mmHg 83%
    01:00 +15°C° 0 mm 5 mps 764 mmHg 82%
    02:00 +14°C° 0 mm 5 mps 765 mmHg 81%
    03:00 +14°C° 0.1 mm 5 mps 765 mmHg 81%
    04:00 +14°C° 0.1 mm 6 mps 765 mmHg 80%
    05:00 +14°C° 0.1 mm 6 mps 765 mmHg 80%
    06:00 +13°C° 0.4 mm 6 mps 766 mmHg 81%
    07:00 +13°C° 0.4 mm 6 mps 766 mmHg 82%
    08:00 +11°C° 0.4 mm 6 mps 767 mmHg 83%
    09:00 +11°C° 0.3 mm 7 mps 767 mmHg 84%
    10:00 +11°C° 0.3 mm 7 mps 767 mmHg 84%
    11:00 +11°C° 0.3 mm 7 mps 768 mmHg 84%
    12:00 +11°C° 0.2 mm 7 mps 767 mmHg 84%
    13:00 +11°C° 0.2 mm 7 mps 767 mmHg 84%
    14:00 +10°C° 0.2 mm 7 mps 766 mmHg 84%
    15:00 +10°C° 0.6 mm 7 mps 767 mmHg 85%
    16:00 +10°C° 0.6 mm 6 mps 767 mmHg 85%
    17:00 +10°C° 0.6 mm 6 mps 767 mmHg 86%
    18:00 +10°C° 0.8 mm 6 mps 767 mmHg 87%
    19:00 +10°C° 0.8 mm 6 mps 767 mmHg 87%
    20:00 +10°C° 0.8 mm 6 mps 767 mmHg 87%
    21:00 +10°C° 0.4 mm 6 mps 767 mmHg 87%
    22:00 +10°C° 0.4 mm 6 mps 768 mmHg 88%
    23:00 +10°C° 0.4 mm 5 mps 768 mmHg 88%

    Day after tomorrow, 31 July, Monday

    Time Temperature Precipitation Wind Pressure Humidity
    00:00 +12°C° 0.2 mm 5 mps 767 mmHg 88%
    01:00 +12°C° 0.2 mm 5 mps 767 mmHg 88%
    02:00 +12°C° 0.2 mm 5 mps 767 mmHg 88%
    03:00 +12°C° 0.2 mm 5 mps 766 mmHg 89%
    04:00 +12°C° 0.2 mm 5 mps 766 mmHg 89%
    05:00 +12°C° 0.2 mm 5 mps 765 mmHg 89%
    06:00 +12°C° 0.2 mm 5 mps 765 mmHg 88%
    07:00 +12°C° 0.2 mm 5 mps 765 mmHg 88%
    08:00 +13°C° 0.2 mm 6 mps 765 mmHg 88%
    09:00 +13°C° 0.4 mm 5 mps 765 mmHg 88%
    10:00 +13°C° 0.4 mm 5 mps 765 mmHg 87%
    11:00 +13°C° 0.4 mm 5 mps 765 mmHg 87%
    12:00 +13°C° 0.8 mm 5 mps 764 mmHg 88%
    13:00 +13°C° 0.8 mm 5 mps 763 mmHg 89%
    14:00 +13°C° 0.8 mm 4 mps 762 mmHg 90%
    15:00 +13°C° 0.6 mm 4 mps 762 mmHg 91%
    16:00 +13°C° 0.6 mm 4 mps 762 mmHg 91%
    17:00 +13°C° 0.6 mm 4 mps 761 mmHg 91%
    18:00 +13°C° 0.2 mm 4 mps 761 mmHg 92%
    19:00 +13°C° 0.2 mm 4 mps 762 mmHg 92%
    20:00 +13°C° 0.2 mm 4 mps 762 mmHg 93%
    21:00 +13°C° 0.2 mm 4 mps 761 mmHg 93%
    22:00 +13°C° 0.2 mm 3 mps 761 mmHg 93%
    23:00 +14°C° 0.2 mm 3 mps 761 mmHg 94%

    1 August, Tuesday

    Time Temperature Precipitation Wind Pressure Humidity
    00:00 +14°C° 0.2 mm 3 mps 761 mmHg 94%
    01:00 +14°C° 0.2 mm 3 mps 760 mmHg 95%
    02:00 +15°C° 0.2 mm 2 mps 760 mmHg 95%
    03:00 +14°C° 0.2 mm 3 mps 760 mmHg 95%
    04:00 +13°C° 0.2 mm 3 mps 759 mmHg 95%
    05:00 +13°C° 0.2 mm 3 mps 759 mmHg 95%
    06:00 +13°C° 0.3 mm 3 mps 759 mmHg 94%
    07:00 +13°C° 0.3 mm 4 mps 760 mmHg 94%
    08:00 +13°C° 0.3 mm 4 mps 760 mmHg 94%
    09:00 +14°C° 0.5 mm 4 mps 760 mmHg 93%
    10:00 +14°C° 0.5 mm 4 mps 760 mmHg 93%
    11:00 +14°C° 0.5 mm 4 mps 759 mmHg 92%
    12:00 +14°C° 0.5 mm 4 mps 759 mmHg 92%
    13:00 +14°C° 0.5 mm 4 mps 758 mmHg 91%
    14:00 +14°C° 0.5 mm 5 mps 758 mmHg 91%
    15:00 +14°C° 0.3 mm 5 mps 758 mmHg 91%
    16:00 +14°C° 0.3 mm 5 mps 758 mmHg 91%
    17:00 +14°C° 0.3 mm 5 mps 758 mmHg 90%
    18:00 +14°C° 0 mm 5 mps 759 mmHg 91%
    19:00 +13°C° 0 mm 5 mps 760 mmHg 91%
    20:00 +13°C° 0 mm 5 mps 760 mmHg 91%
    21:00 +13°C° 0 mm 5 mps 760 mmHg 91%
    22:00 +13°C° 0 mm 5 mps 761 mmHg 91%
    23:00 +13°C° 0 mm 5 mps 761 mmHg 90%

    2 August, Wednesday

    Time Temperature Precipitation Wind Pressure Humidity
    00:00 +12°C° 0 mm 5 mps 761 mmHg 91%
    01:00 +12°C° 0 mm 5 mps 761 mmHg 91%
    02:00 +12°C° 0 mm 5 mps 761 mmHg 91%
    03:00 +12°C° 0.1 mm 5 mps 762 mmHg 90%
    04:00 +12°C° 0.1 mm 5 mps 762 mmHg 90%
    05:00 +12°C° 0.1 mm 5 mps 762 mmHg 90%
    06:00 +12°C° 0 mm 5 mps 763 mmHg 90%
    07:00 +12°C° 0 mm 5 mps 763 mmHg 89%
    08:00 +12°C° 0 mm 5 mps 764 mmHg 89%
    09:00 +13°C° 0 mm 5 mps 764 mmHg 84%
    10:00 +13°C° 0 mm 4 mps 764 mmHg 80%
    11:00 +14°C° 0 mm 4 mps 765 mmHg 75%
    12:00 +15°C° 0 mm 4 mps 764 mmHg 72%
    13:00 +17°C° 0 mm 3 mps 764 mmHg 68%
    14:00 +17°C° 0 mm 3 mps 764 mmHg 65%
    15:00 +17°C° 0 mm 3 mps 764 mmHg 68%
    16:00 +16°C° 0 mm 2 mps 764 mmHg 71%
    17:00 +15°C° 0 mm 2 mps 765 mmHg 74%
    18:00 +15°C° 0 mm 2 mps 765 mmHg 76%
    19:00 +14°C° 0 mm 2 mps 765 mmHg 79%
    20:00 +13°C° 0 mm 2 mps 766 mmHg 82%
    21:00 +13°C° 0 mm 2 mps 766 mmHg 83%
    22:00 +12°C° 0 mm 1 mps 766 mmHg 84%
    23:00 +12°C° 0 mm 1 mps 766 mmHg 85%

    3 August, Thursday

    Time Temperature Precipitation Wind Pressure Humidity
    00:00 +12°C° 0 mm 1 mps 766 mmHg 85%
    01:00 +11°C° 0 mm 1 mps 766 mmHg 86%
    02:00 +11°C° 0 mm 1 mps 766 mmHg 86%
    03:00 +11°C° 0 mm 1 mps 766 mmHg 87%
    04:00 +11°C° 0 mm 1 mps 765 mmHg 87%
    05:00 +11°C° 0 mm 1 mps 765 mmHg 88%
    06:00 +11°C° 0 mm 1 mps 766 mmHg 86%
    07:00 +11°C° 0 mm 1 mps 766 mmHg 85%
    08:00 +12°C° 0 mm 1 mps 766 mmHg 83%
    09:00 +13°C° 0 mm 2 mps 766 mmHg 76%
    10:00 +15°C° 0 mm 2 mps 767 mmHg 69%
    11:00 +16°C° 0 mm 2 mps 767 mmHg 62%
    12:00 +17°C° 0 mm 2 mps 766 mmHg 59%
    13:00 +17°C° 0 mm 2 mps 766 mmHg 56%
    14:00 +18°C° 0 mm 2 mps 765 mmHg 53%
    15:00 +17°C° 0 mm 2 mps 765 mmHg 57%
    16:00 +16°C° 0 mm 2 mps 765 mmHg 61%
    17:00 +16°C° 0 mm 1 mps 765 mmHg 65%
    18:00 +15°C° 0 mm 1 mps 766 mmHg 67%
    19:00 +14°C° 0 mm 2 mps 766 mmHg 70%
    20:00 +13°C° 0 mm 2 mps 766 mmHg 73%
    21:00 +13°C° 0 mm 2 mps 766 mmHg 75%
    22:00 +13°C° 0 mm 2 mps 766 mmHg 76%
    23:00 +12°C° 0 mm 2 mps 766 mmHg 78%
    Show more